When you browse on this site, cookies collect data to enhance your experience and personalize the content and advertising you see.
Visit our Privacy Policy to learn more. By continuing to use the site, you agree to this use of cookies and data.
  • In Austria
  • List of Countries
  • For 7 days
  • Water Temperature
  • Weather Map
  • News
  • Weather Widgets
  • user-avatar
    Login

    Hourly Weather Escaldes-Engordany

    Today, 5 June, Friday

    Time Temperature Precipitation Wind Pressure Humidity
    00:00 +5°C° 0 mm 2 mps 631 mmHg 93%
    01:00 +5°C° 0 mm 2 mps 631 mmHg 93%
    02:00 +5°C° 0 mm 2 mps 631 mmHg 93%
    03:00 +5°C° 0 mm 2 mps 631 mmHg 93%
    04:00 +5°C° 0 mm 2 mps 631 mmHg 91%
    05:00 +5°C° 0 mm 2 mps 632 mmHg 88%
    06:00 +6°C° 0 mm 2 mps 633 mmHg 86%
    07:00 +8°C° 0 mm 2 mps 633 mmHg 77%
    08:00 +10°C° 0 mm 2 mps 634 mmHg 69%
    09:00 +13°C° 0 mm 2 mps 635 mmHg 60%
    10:00 +14°C° 0 mm 2 mps 636 mmHg 58%
    11:00 +15°C° 0 mm 2 mps 636 mmHg 57%
    12:00 +15°C° 0 mm 2 mps 637 mmHg 56%
    13:00 +16°C° 0 mm 2 mps 637 mmHg 56%
    14:00 +16°C° 0 mm 2 mps 637 mmHg 57%
    15:00 +16°C° 0 mm 2 mps 636 mmHg 58%
    16:00 +16°C° 0 mm 2 mps 636 mmHg 65%
    17:00 +15°C° 0 mm 1 mps 636 mmHg 72%
    18:00 +14°C° 0 mm 1 mps 636 mmHg 79%
    19:00 +13°C° 0 mm 1 mps 636 mmHg 83%
    20:00 +12°C° 0 mm 1 mps 636 mmHg 87%
    21:00 +10°C° 0 mm 0 mps 636 mmHg 91%
    22:00 +9°C° 0 mm 0 mps 636 mmHg 92%
    23:00 +8°C° 0 mm 0 mps 635 mmHg 93%

    Tomorrow, 6 June, Saturday

    Time Temperature Precipitation Wind Pressure Humidity
    00:00 +8°C° 0 mm 0 mps 635 mmHg 94%
    01:00 +8°C° 0 mm 0 mps 635 mmHg 94%
    02:00 +8°C° 0 mm 0 mps 635 mmHg 94%
    03:00 +8°C° 0 mm 0 mps 635 mmHg 94%
    04:00 +9°C° 0 mm 0 mps 635 mmHg 92%
    05:00 +10°C° 0 mm 0 mps 635 mmHg 90%
    06:00 +11°C° 0 mm 0 mps 636 mmHg 88%
    07:00 +13°C° 0 mm 1 mps 636 mmHg 80%
    08:00 +15°C° 0 mm 1 mps 637 mmHg 72%
    09:00 +17°C° 0 mm 2 mps 637 mmHg 65%
    10:00 +16°C° 0.3 mm 2 mps 637 mmHg 68%
    11:00 +16°C° 0.3 mm 2 mps 637 mmHg 72%
    12:00 +16°C° 0.3 mm 2 mps 637 mmHg 75%
    13:00 +16°C° 1 mm 2 mps 636 mmHg 79%
    14:00 +15°C° 1 mm 2 mps 636 mmHg 82%
    15:00 +15°C° 1 mm 2 mps 635 mmHg 85%
    16:00 +14°C° 1.1 mm 2 mps 635 mmHg 87%
    17:00 +14°C° 1.1 mm 2 mps 634 mmHg 89%
    18:00 +13°C° 1.1 mm 1 mps 634 mmHg 91%
    19:00 +12°C° 3.5 mm 1 mps 634 mmHg 93%
    20:00 +12°C° 3.5 mm 1 mps 634 mmHg 94%
    21:00 +11°C° 3.5 mm 1 mps 634 mmHg 96%
    22:00 +10°C° 1.1 mm 1 mps 634 mmHg 96%
    23:00 +9°C° 1.1 mm 1 mps 633 mmHg 95%

    Day after tomorrow, 7 June, Sunday

    Time Temperature Precipitation Wind Pressure Humidity
    00:00 +9°C° 1.1 mm 1 mps 633 mmHg 95%
    01:00 +9°C° 0.4 mm 1 mps 633 mmHg 95%
    02:00 +9°C° 0.4 mm 1 mps 633 mmHg 95%
    03:00 +9°C° 0.4 mm 1 mps 633 mmHg 95%
    04:00 +10°C° 0.5 mm 1 mps 633 mmHg 95%
    05:00 +10°C° 0.5 mm 1 mps 633 mmHg 95%
    06:00 +10°C° 0.5 mm 1 mps 633 mmHg 94%
    07:00 +10°C° 1 mm 1 mps 634 mmHg 93%
    08:00 +11°C° 1 mm 1 mps 634 mmHg 91%
    09:00 +11°C° 1 mm 1 mps 634 mmHg 89%
    10:00 +10°C° 1.6 mm 1 mps 634 mmHg 91%
    11:00 +10°C° 1.6 mm 1 mps 634 mmHg 93%
    12:00 +9°C° 1.6 mm 1 mps 634 mmHg 95%
    13:00 +9°C° 0.8 mm 1 mps 634 mmHg 95%
    14:00 +9°C° 0.8 mm 1 mps 634 mmHg 94%
    15:00 +9°C° 0.8 mm 1 mps 634 mmHg 93%
    16:00 +9°C° 0.5 mm 1 mps 634 mmHg 94%
    17:00 +9°C° 0.5 mm 1 mps 634 mmHg 94%
    18:00 +8°C° 0.5 mm 1 mps 634 mmHg 94%
    19:00 +8°C° 0.6 mm 1 mps 634 mmHg 94%
    20:00 +8°C° 0.6 mm 1 mps 635 mmHg 94%
    21:00 +7°C° 0.6 mm 1 mps 635 mmHg 95%
    22:00 +7°C° 0.3 mm 1 mps 635 mmHg 95%
    23:00 +7°C° 0.3 mm 1 mps 635 mmHg 95%

    8 June, Monday

    Time Temperature Precipitation Wind Pressure Humidity
    00:00 +7°C° 0.3 mm 1 mps 635 mmHg 95%
    01:00 +6°C° 0.1 mm 0 mps 635 mmHg 95%
    02:00 +6°C° 0.1 mm 0 mps 635 mmHg 95%
    03:00 +6°C° 0.1 mm 0 mps 635 mmHg 96%
    04:00 +7°C° 0 mm 1 mps 635 mmHg 95%
    05:00 +7°C° 0 mm 1 mps 635 mmHg 95%
    06:00 +7°C° 0 mm 1 mps 635 mmHg 94%
    07:00 +8°C° 0.2 mm 1 mps 635 mmHg 91%
    08:00 +9°C° 0.2 mm 1 mps 636 mmHg 89%
    09:00 +10°C° 0.2 mm 1 mps 636 mmHg 86%
    10:00 +9°C° 0.7 mm 2 mps 636 mmHg 86%
    11:00 +8°C° 0.7 mm 2 mps 636 mmHg 85%
    12:00 +8°C° 0.7 mm 2 mps 636 mmHg 85%
    13:00 +9°C° 0.4 mm 2 mps 636 mmHg 82%
    14:00 +9°C° 0.4 mm 2 mps 636 mmHg 79%
    15:00 +10°C° 0.4 mm 2 mps 636 mmHg 77%
    16:00 +10°C° 0.3 mm 2 mps 636 mmHg 78%
    17:00 +9°C° 0.3 mm 2 mps 636 mmHg 80%
    18:00 +10°C° 0.3 mm 1 mps 636 mmHg 81%
    19:00 +8°C° 0.1 mm 2 mps 636 mmHg 85%
    20:00 +6°C° 0.1 mm 2 mps 636 mmHg 90%
    21:00 +5°C° 0.1 mm 2 mps 636 mmHg 94%
    22:00 +5°C° 0 mm 2 mps 636 mmHg 94%
    23:00 +4°C° 0 mm 2 mps 635 mmHg 94%

    9 June, Tuesday

    Time Temperature Precipitation Wind Pressure Humidity
    00:00 +4°C° 0 mm 2 mps 635 mmHg 93%
    01:00 +4°C° 0 mm 2 mps 635 mmHg 93%
    02:00 +4°C° 0 mm 2 mps 635 mmHg 93%
    03:00 +4°C° 0 mm 2 mps 635 mmHg 93%
    04:00 +5°C° 0 mm 2 mps 636 mmHg 90%
    05:00 +5°C° 0 mm 2 mps 636 mmHg 88%
    06:00 +6°C° 0 mm 2 mps 636 mmHg 85%
    07:00 +8°C° 0 mm 2 mps 637 mmHg 75%
    08:00 +10°C° 0 mm 2 mps 638 mmHg 64%
    09:00 +13°C° 0 mm 2 mps 639 mmHg 54%
    10:00 +14°C° 0.1 mm 2 mps 639 mmHg 53%
    11:00 +14°C° 0.1 mm 2 mps 639 mmHg 53%
    12:00 +15°C° 0.1 mm 2 mps 639 mmHg 52%
    13:00 +15°C° 0.4 mm 2 mps 639 mmHg 55%
    14:00 +15°C° 0.4 mm 2 mps 638 mmHg 58%
    15:00 +14°C° 0.4 mm 2 mps 638 mmHg 60%
    16:00 +14°C° 0.4 mm 2 mps 638 mmHg 66%
    17:00 +13°C° 0.4 mm 2 mps 638 mmHg 72%
    18:00 +12°C° 0.4 mm 2 mps 638 mmHg 77%
    19:00 +9°C° 0.1 mm 2 mps 638 mmHg 82%
    20:00 +8°C° 0.1 mm 2 mps 637 mmHg 88%
    21:00 +6°C° 0.1 mm 2 mps 637 mmHg 93%
    22:00 +6°C° 0.2 mm 2 mps 637 mmHg 93%
    23:00 +6°C° 0.2 mm 2 mps 638 mmHg 93%

    10 June, Wednesday

    Time Temperature Precipitation Wind Pressure Humidity
    00:00 +6°C° 0.2 mm 2 mps 638 mmHg 93%
    01:00 +6°C° 0 mm 2 mps 637 mmHg 93%
    02:00 +6°C° 0 mm 2 mps 637 mmHg 94%
    03:00 +6°C° 0 mm 2 mps 637 mmHg 94%
    04:00 +6°C° 0 mm 2 mps 637 mmHg 92%
    05:00 +7°C° 0 mm 2 mps 638 mmHg 90%
    06:00 +7°C° 0 mm 2 mps 638 mmHg 89%
    07:00 +9°C° 0 mm 2 mps 639 mmHg 80%
    08:00 +12°C° 0 mm 2 mps 639 mmHg 71%
    09:00 +14°C° 0 mm 2 mps 640 mmHg 62%
    10:00 +14°C° 0.3 mm 2 mps 640 mmHg 62%
    11:00 +14°C° 0.3 mm 2 mps 640 mmHg 62%
    12:00 +15°C° 0.3 mm 2 mps 640 mmHg 62%
    13:00 +14°C° 0.9 mm 2 mps 640 mmHg 69%
    14:00 +14°C° 0.9 mm 2 mps 639 mmHg 75%
    15:00 +13°C° 0.9 mm 2 mps 639 mmHg 81%
    16:00 +12°C° 0.8 mm 2 mps 639 mmHg 84%
    17:00 +12°C° 0.8 mm 1 mps 638 mmHg 87%
    18:00 +11°C° 0.8 mm 1 mps 638 mmHg 89%
    19:00 +10°C° 0.2 mm 1 mps 638 mmHg 91%
    20:00 +8°C° 0.2 mm 2 mps 638 mmHg 92%
    21:00 +7°C° 0.2 mm 2 mps 638 mmHg 94%
    22:00 +6°C° 0 mm 2 mps 638 mmHg 94%
    23:00 +6°C° 0 mm 2 mps 638 mmHg 94%
    Show more